This is the latest recevied weather packets stored in our database for station/object KI5NXU. If no packets are shown the sender has not sent any weather packets the latest 10 day(s).
| Time | Temp. | Humidity | Pressure | Rain* | Wind** | Luminosity | Snow |
|---|---|---|---|---|---|---|---|
| 1777738574 | 20° C | 62% | 1021.6 hPa | 0 mm | - | 825 W/m² | - |
| 1777738271 | 20° C | 60% | 1021.8 hPa | 0 mm | - | 807 W/m² | - |
| 1777737969 | 20° C | 60% | 1021.7 hPa | 0 mm | - | 769 W/m² | - |
| 1777737668 | 19.44° C | 61% | 1021.7 hPa | 0 mm | - | 763 W/m² | - |
| 1777737366 | 19.44° C | 63% | 1021.8 hPa | 0 mm | - | 743 W/m² | - |
| 1777737062 | 19.44° C | 64% | 1021.4 hPa | 0 mm | - | 739 W/m² | - |
| 1777736758 | 18.89° C | 65% | 1021.5 hPa | 0 mm | - | 687 W/m² | - |
| 1777736130 | 18.89° C | 67% | 1021.6 hPa | 0 mm | - | 663 W/m² | - |
| 1777735827 | 18.89° C | 67% | 1021.9 hPa | 0 mm | - | 651 W/m² | - |
| 1777735525 | 18.33° C | 68% | 1021.6 hPa | 0 mm | - | 634 W/m² | - |
| 1777735222 | 18.33° C | 70% | 1021.9 hPa | 0 mm | - | 626 W/m² | - |
| 1777734919 | 17.78° C | 70% | 1021.8 hPa | 0 mm | - | 633 W/m² | - |
| 1777734616 | 17.78° C | 71% | 1021.8 hPa | 0 mm | - | 600 W/m² | - |
| 1777734314 | 17.22° C | 72% | 1021.6 hPa | 0 mm | - | 600 W/m² | - |
| 1777734009 | 17.22° C | 73% | 1021.7 hPa | 0 mm | - | 540 W/m² | - |
| 1777733706 | 17.22° C | 75% | 1021.6 hPa | 0 mm | - | 505 W/m² | - |
| 1777733403 | 16.67° C | 75% | 1021.6 hPa | 0 mm | - | 493 W/m² | - |
| 1777733099 | 17.22° C | 75% | 1021.6 hPa | 0 mm | - | 476 W/m² | - |
| 1777732795 | 16.67° C | 76% | 1021.6 hPa | 0 mm | - | 414 W/m² | - |
| 1777732492 | 16.67° C | 78% | 1021.7 hPa | 0 mm | - | 364 W/m² | - |
| 1777732190 | 16.11° C | 78% | 1021.4 hPa | 0 mm | - | 352 W/m² | - |
| 1777731887 | 15.56° C | 79% | 1021.7 hPa | 0 mm | - | 339 W/m² | - |
| 1777731584 | 15.56° C | 80% | 1021.7 hPa | 0 mm | - | 319 W/m² | - |
| 1777731282 | 15.56° C | 80% | 1021.7 hPa | 0 mm | - | 271 W/m² | - |
| 1777730979 | 15° C | 81% | 1021.5 hPa | 0 mm | - | 261 W/m² | - |
* Rain latest hour (hover to see other rain measurements)
** Current wind speed in m/s (hover to see current wind gust speed)